GLOBALSTAR M066

Last updated on Mon Sep 21 2026 00:03:12 GMT+0000 (Coordinated Universal Time)

1 32265U 07048C 26263.06109447 -.00000101 00000+0 -56970-4 0 9991 2 32265 51.9577 145.5568 0003985 238.9524 268.0412 12.30390837871900
UTC large
Height (km)
Speed (km/s)
/
Latitude / Longitude
Inclination (degrees)
Orbital Period (minutes)
Azimuth
Elevation
Range (km)
Doppler Factor

Next 0 passes for location: London (51.5072 / 0.1276)

No passes found over London.
GLOBALSTAR M066